Probability
23 25 23 19 18 20 21 18 16 16 17 16 14 13 14 14 13 13 12 11 11 11 10 8 6 5 5 5 4 4 5 6 6 5 3 1 1 3 4 6 6 5 4
24 25 24 21 20 20 20 20 19 19 19 18 16 15 15 15 14 13 12 11 10 11 11 10 7 6 5 4 4 4 5 6 7 6 5 3 2 3 4 4 5 5 6
23 24 24 22 20 18 17 19 21 21 20 20 19 19 19 17 16 14 12 11 12 12 12 11 9 7 7 6 5 4 5 7 8 8 7 5 4 3 3 3 3 5 7
19 20 20 19 17 15 15 18 21 21 22 23 23 22 21 20 18 17 15 15 16 15 13 12 10 9 10 10 7 5 6 8 9 9 8 6 5 4 3 3 3 5 7
14 15 15 15 15 14 15 18 21 23 24 25 25 24 24 22 21 21 20 22 22 19 15 13 14 13 13 12 10 7 7 8 9 10 8 6 5 5 4 3 4 5 7
11 12 14 16 16 15 16 18 22 24 25 27 27 26 26 25 24 24 24 26 26 23 18 17 17 16 14 12 10 9 7 7 9 9 9 8 7 6 5 5 5 5 5
11 13 16 18 19 19 18 19 21 24 26 27 26 26 26 25 24 24 24 25 24 22 20 19 18 17 14 12 11 10 8 8 8 9 9 10 10 9 8 8 7 6 5
12 14 17 20 21 22 21 20 20 23 25 25 24 24 24 23 23 23 23 21 19 18 18 19 18 16 13 13 13 11 9 9 9 8 9 10 10 10 10 9 8 7 6
11 13 16 19 22 24 23 21 20 21 23 23 22 22 23 22 22 22 20 17 14 14 14 16 17 15 12 12 13 12 10 10 9 9 8 9 10 10 10 9 8 7 6
8 10 14 18 20 21 22 21 20 21 23 23 22 22 22 20 18 17 16 13 12 11 11 12 12 12 10 9 11 11 9 9 9 9 8 9 10 11 11 11 10 8 7
5 6 12 16 18 18 19 18 18 21 24 25 24 23 22 19 16 14 12 11 11 12 11 9 8 9 8 9 9 8 7 7 8 8 9 9 10 12 13 13 12 10 9
5 6 10 15 17 18 18 17 17 19 23 25 26 24 22 19 17 14 12 11 12 12 11 9 7 7 7 8 8 6 5 5 6 7 9 10 11 13 14 14 13 11 10
6 6 8 11 15 17 17 16 16 17 20 25 26 23 20 19 17 15 13 12 12 12 10 9 8 7 6 6 6 6 5 6 6 7 8 10 11 12 13 13 12 12 11
6 6 6 7 9 12 13 14 15 16 18 23 24 22 19 17 17 15 14 13 13 12 11 9 7 7 6 5 5 6 7 7 7 8 9 10 10 11 10 10 10 10 11
5 6 6 5 5 6 9 12 14 14 15 19 21 20 18 16 16 16 16 14 13 13 12 10 8 6 5 4 5 6 6 6 7 10 11 10 9 9 7 6 6 7 7
5 5 6 6 6 6 7 10 12 12 13 17 20 19 17 16 16 16 16 15 14 13 13 11 9 7 4 4 4 5 5 5 7 10 10 10 9 8 5 3 2 3 4
5 5 5 6 8 7 7 9 10 10 11 15 20 20 18 16 16 17 17 16 16 16 15 13 10 8 5 3 3 4 5 6 7 9 9 10 9 9 6 4 2 2 2
5 4 5 6 7 7 7 8 8 8 9 12 17 20 18 16 17 18 18 17 17 17 16 13 11 9 6 3 1 2 4 7 8 8 8 9 9 9 8 7 6 4 2
7 6 6 7 8 7 7 8 9 8 8 9 13 15 16 16 17 18 18 17 17 15 14 13 12 10 7 3 1 1 5 8 8 7 7 8 8 7 6 6 7 5 4
9 9 9 10 10 9 9 9 10 8 8 9 10 11 12 14 16 16 16 16 16 14 13 12 11 10 6 2 0 2 5 6 6 6 6 6 5 4 3 4 5 5 5
11 11 12 13 12 10 10 11 11 10 10 10 10 10 10 12 14 15 15 15 16 15 13 12 10 7 4 1 0 1 3 4 4 5 4 3 2 1 1 2 3 4 4
11 11 13 14 14 13 12 12 13 13 12 12 11 11 12 13 14 15 14 14 15 14 13 11 9 6 3 1 0 0 1 2 3 4 3 2 1 0 0 0 1 2 3
10 10 11 13 15 14 14 14 14 14 14 15 14 14 14 15 16 16 14 13 13 12 11 10 8 6 5 3 1 0 0 0 2 2 1 1 0 0 0 0 0 1 2
8 8 8 11 13 13 13 14 14 14 15 16 16 15 16 16 17 17 15 13 12 11 11 10 8 7 6 5 2 0 0 0 0 0 0 0 0 0 1 1 1 1 2
6 6 6 8 9 9 9 11 12 13 14 14 14 14 15 16 17 17 15 12 10 9 9 9 8 6 5 4 2 0 0 0 0 0 0 0 0 0 1 2 3 3 3
6 6 5 5 6 6 6 7 10 12 12 12 13 12 13 15 16 15 13 9 7 6 6 7 8 6 3 2 1 0 0 0 0 0 0 0 0 0 1 2 3 5 5
Wind_Speed
6 6 6 5 5 5 6 6 6 6 5 4 4 4 4 3 3 3 3 3 3 3 3 2 3 3 2 2 3 3 4 3 2 3 2 2 2 2 2 2 1 2 2
6 6 6 5 5 5 5 6 6 6 6 4 3 3 3 3 3 2 3 3 3 4 4 3 3 3 2 3 3 3 3 3 3 3 3 3 4 3 3 2 2 2 2
7 7 7 6 5 5 5 4 5 5 5 5 4 3 3 3 4 4 4 4 4 4 4 4 4 3 4 3 3 4 4 3 3 2 2 2 2 3 4 3 2 2 2
7 7 6 6 5 5 5 5 5 5 5 5 5 5 4 4 4 3 3 4 4 4 4 4 4 3 3 3 4 4 3 3 3 3 2 2 1 2 3 4 4 3 2
6 6 5 5 5 4 4 4 5 4 4 4 5 5 5 4 3 3 4 4 4 4 4 4 4 4 3 3 3 3 3 3 3 2 3 3 2 3 2 3 4 4 3
5 5 4 4 4 4 4 5 5 5 4 4 4 4 4 4 4 4 4 4 4 4 4 4 4 4 3 3 4 3 4 2 2 2 2 2 2 3 3 2 3 3 3
4 4 3 3 4 4 4 4 5 4 4 4 4 4 5 5 5 5 4 4 3 3 4 4 4 3 3 3 3 3 3 3 3 3 3 2 2 2 2 2 3 3 3
3 3 2 2 3 3 3 3 3 4 4 4 4 4 4 4 3 4 4 4 3 2 3 4 4 4 4 4 3 4 4 3 4 4 3 3 3 2 2 2 3 3 3
3 2 2 2 1 2 2 2 2 2 3 4 4 4 4 3 3 3 4 3 3 2 4 4 4 4 4 4 4 3 3 4 5 5 5 4 3 3 3 3 3 4 4
2 2 2 2 1 1 1 1 1 2 3 3 3 3 3 4 3 3 3 3 3 3 4 4 4 4 4 4 4 4 3 4 4 3 3 4 3 3 3 3 3 3 4
2 2 2 2 2 1 1 0 1 2 2 3 3 3 3 3 4 4 4 4 4 4 5 5 5 4 4 4 4 4 4 5 4 4 5 5 4 3 3 3 3 3 3
2 2 2 2 1 1 0 0 1 1 2 2 2 3 3 3 4 4 4 4 4 5 5 5 5 5 5 4 5 5 5 5 5 5 5 5 4 4 4 3 3 3 3
2 2 2 2 1 1 1 1 1 1 1 2 3 3 4 4 4 4 4 5 5 4 5 5 5 5 5 5 5 5 5 5 5 5 5 5 4 4 3 4 3 3 3
1 1 2 2 1 1 1 1 1 1 1 2 3 3 4 4 4 4 5 5 5 5 5 5 5 5 5 5 5 5 5 5 5 5 5 5 4 4 4 4 4 4 4
1 1 1 1 2 1 1 2 2 1 2 2 2 3 3 4 4 3 4 4 4 5 5 5 5 5 5 4 4 5 5 5 5 5 5 5 4 3 3 4 3 4 4
2 2 2 2 2 1 2 2 2 2 2 2 2 2 3 3 3 3 3 4 4 4 4 5 5 5 3 2 2 4 5 5 5 5 5 5 6 5 5 5 5 5 5
3 2 2 2 2 1 2 2 2 2 2 3 3 2 3 3 4 3 3 3 4 3 4 4 4 4 3 4 3 4 5 5 4 4 5 5 3 5 6 6 7 8 8
3 2 2 2 1 1 1 2 1 2 2 3 3 2 3 3 3 3 3 3 3 3 3 3 4 4 3 5 5 5 6 5 5 5 4 4 3 3 4 5 6 7 7
3 3 2 2 1 1 1 1 1 1 1 2 2 2 3 3 4 3 3 2 2 3 3 3 3 3 2 5 5 5 5 4 5 5 5 5 5 2 2 6 6 6 6
2 2 2 2 1 1 1 1 1 1 2 2 2 2 2 3 3 3 3 2 2 3 3 3 3 3 3 4 5 6 5 4 5 5 5 4 4 2 4 6 6 7 6
2 2 2 2 1 1 1 1 1 1 2 2 1 1 2 3 3 3 3 3 2 2 3 3 3 3 2 4 6 6 5 4 5 4 4 2 5 4 5 6 6 6 6
1 1 2 2 1 1 1 1 1 1 1 1 2 2 2 2 2 2 2 2 2 3 3 3 3 2 3 3 5 7 7 6 5 4 3 1 4 4 5 6 5 4 5
1 1 1 2 1 1 1 1 1 1 1 1 2 2 2 2 2 3 3 3 3 3 3 2 2 2 2 2 5 7 7 7 5 3 2 1 4 5 6 7 6 6 6
1 1 1 1 1 1 0 0 1 1 1 2 2 2 3 3 2 2 3 2 2 3 3 3 2 2 2 1 1 2 4 5 5 4 3 5 6 6 5 4 5 6 5
1 1 1 1 1 1 1 1 1 0 1 1 1 2 2 2 2 2 1 2 1 1 3 2 2 2 2 1 2 2 2 2 2 3 3 3 3 3 3 3 3 3 4
1 1 1 1 1 1 2 2 2 1 0 1 1 1 1 1 2 2 1 1 1 1 2 2 2 1 1 1 1 0 1 2 2 3 3 3 3 3 3 3 3 3 3
Wind_Direction
178 171 170 166 164 165 176 184 188 182 188 192 198 191 189 195 194 198 196 204 206 197 216 214 179 212 185 197 197 201 189 191 191 181 166 159 154 154 162 183 183 162 161
178 173 175 175 174 172 176 179 184 183 192 193 208 206 205 204 195 208 194 208 204 204 207 215 208 203 193 194 194 202 209 192 196 208 193 183 171 180 175 175 177 178 172
187 180 179 180 177 177 180 179 181 183 193 194 200 200 200 202 190 197 193 202 204 203 217 206 217 206 209 186 196 207 215 205 200 224 239 225 201 168 158 172 170 173 184
189 186 182 180 180 180 177 177 181 186 188 197 204 204 207 207 202 203 191 192 197 204 204 203 203 214 214 181 202 198 214 217 204 194 236 277 327 253 167 172 168 172 182
184 185 182 174 174 175 173 171 176 178 184 202 204 212 217 214 203 201 186 196 186 197 198 200 197 202 208 188 203 192 217 214 223 214 201 206 211 242 247 182 173 177 175
177 172 161 164 167 169 169 168 173 177 181 194 205 212 222 222 209 201 191 193 184 189 193 198 194 200 204 194 203 200 195 214 223 233 223 213 220 220 226 216 205 192 172
165 165 165 172 169 168 170 175 173 180 185 190 204 211 216 215 211 212 198 200 188 182 186 196 193 196 201 201 206 202 206 206 210 219 221 223 234 252 244 240 226 216 191
154 159 157 166 163 161 168 178 183 186 191 196 205 216 217 220 214 208 206 198 204 187 173 189 190 193 195 197 200 208 204 205 213 219 223 229 225 233 239 244 246 236 219
152 151 146 149 151 157 170 192 193 199 203 209 210 211 213 224 219 206 206 196 191 183 172 182 187 190 194 200 200 209 211 209 212 208 207 227 219 228 235 245 254 262 253
157 153 151 149 141 138 146 171 192 214 212 212 222 219 213 215 212 214 200 194 189 184 174 180 191 195 197 199 206 205 209 214 213 215 217 227 226 223 230 240 246 258 268
172 159 155 150 134 128 144 176 210 224 220 216 214 229 222 213 212 211 209 202 200 196 192 188 191 199 202 201 205 215 211 215 217 219 216 222 229 232 234 236 240 250 256
169 168 161 162 164 180 212 8 272 245 234 214 210 220 224 220 215 211 210 206 204 205 197 195 196 202 206 206 207 216 215 218 219 222 226 226 219 227 243 244 245 244 252
156 156 161 171 192 218 260 298 266 243 240 220 207 208 218 218 214 215 213 210 206 202 199 195 200 206 208 209 212 218 221 225 227 223 224 224 224 233 239 248 247 242 239
174 182 189 197 211 246 268 280 286 278 242 224 216 212 218 219 214 211 210 209 203 200 199 195 201 206 210 212 216 221 227 233 233 227 223 222 224 229 236 237 244 254 254
178 203 228 243 254 249 256 276 280 269 246 229 221 219 217 218 207 206 210 201 202 199 197 200 200 203 207 211 224 231 230 233 236 232 229 224 222 236 249 259 250 252 258
214 219 223 245 255 256 255 259 270 259 248 233 222 213 206 202 195 189 195 191 193 200 201 202 202 205 206 158 211 250 240 236 236 239 238 227 209 210 223 247 259 259 254
222 225 226 236 244 249 258 255 259 260 255 242 231 221 210 195 194 185 176 181 183 186 199 206 205 206 186 159 196 237 245 241 236 234 239 245 229 221 233 223 226 236 239
223 225 235 245 252 248 252 272 258 242 238 234 223 213 207 192 182 179 175 186 183 183 193 204 209 214 181 165 198 232 233 242 241 233 229 240 241 243 256 249 244 245 237
226 232 235 231 244 243 236 270 272 241 232 229 222 204 205 190 181 177 176 182 196 197 198 196 202 215 184 170 192 222 234 235 242 240 231 231 238 206 244 254 251 253 250
210 208 205 199 212 236 235 239 256 268 256 243 228 211 213 204 192 184 189 193 204 204 211 198 204 215 211 168 188 218 242 241 244 237 229 214 238 201 211 248 255 256 262
158 167 175 180 181 209 220 229 253 273 292 285 244 215 218 218 204 188 190 196 209 207 214 205 209 212 212 177 183 212 244 247 250 248 243 215 164 201 221 247 258 265 276
139 149 152 142 135 163 188 213 246 284 280 270 241 221 229 237 204 197 195 194 210 210 207 206 214 209 200 194 189 202 231 266 259 258 258 200 156 212 232 242 258 261 257
116 145 142 118 116 142 173 217 253 250 234 228 222 214 216 235 232 218 208 204 206 220 217 215 219 221 216 180 179 199 219 238 253 271 294 237 200 230 235 231 236 237 238
162 183 171 122 91 74 64 256 243 232 212 215 212 205 204 215 217 226 223 218 219 226 223 226 235 238 232 244 207 210 207 213 233 253 225 199 207 231 251 237 219 229 246
197 179 169 108 74 47 17 3 345 268 213 212 217 217 203 195 213 221 253 250 245 273 266 259 259 265 259 347 10 296 271 271 279 274 257 248 232 230 235 238 234 232 233
164 145 118 93 48 28 11 7 3 336 254 212 218 231 215 195 207 196 175 85 283 200 240 281 286 292 40 123 145 259 287 270 250 251 250 254 252 252 252 251 249 245 248